[[{"header":{"parameterUnit":"m.s-1","parameterCategory":2,"la1":30.2991,"la2":30.254,"lo1":-89.0895,"lo2":-89.0444,"dy":0.0017,"dx":0.0017,"nx":28,"ny":28,"refTime":"2023-10-10T21:00:00:Z","depth":"0","parameterNumber":2,"parameterNumberName":"U-component_of_CURRENTS"},"data":[0,0,0,0,0,0,0,0,0,0,0,0,0,0,0,0,0,0,0,0,0,0,0,0,0,0,0,0,0,0,0,0,0,0,0,0,0,0,0,0,0,0,0,0,0,0,0,0,0,0,0,0,0,0,0,0,0,0,-0.3465,-0.3466,0,-0.3544,-0.3545,-0.3546,-0.3653,-0.3654,-0.3656,-0.3658,-0.3749,-0.375,-0.3751,0,0,0,0,0,0,0,0,0,0,0,0,0,-0.3404,-0.3405,-0.3465,-0.3466,-0.3467,-0.3543,-0.3545,-0.3546,-0.3652,-0.3654,-0.3656,-0.3658,-0.3749,-0.375,-0.3751,0,0,0,0,0,0,0,0,0,0,0,0,0,-0.3452,-0.3405,-0.3465,-0.3529,-0.3535,-0.3543,-0.3545,-0.3546,-0.3652,-0.3654,-0.3657,-0.3659,-0.3749,-0.375,-0.3751,-0.3708,0,0,-0.3755,-0.3756,0,0,0,0,0,0,0,0,-0.3449,-0.3454,-0.3518,-0.3524,-0.3531,-0.359,-0.3557,-0.3601,-0.3651,-0.3608,-0.3658,-0.3661,-0.3695,-0.37,-0.3711,-0.3712,-0.3716,-0.3755,-0.3756,-0.3756,-0.3757,0,0,0,0,0,0,0,-0.3446,-0.3452,-0.3497,-0.3519,-0.3527,-0.3552,-0.3562,-0.3565,-0.3637,-0.3612,-0.362,-0.3626,-0.3699,-0.3709,-0.3714,-0.3718,-0.3755,-0.3756,-0.3757,-0.3758,-0.3717,-0.3715,0,0,0,0,0,0,-0.3431,-0.3448,-0.3495,-0.35,-0.3495,-0.3551,-0.3562,-0.3569,-0.3637,-0.365,-0.3624,-0.3631,-0.3706,-0.3712,-0.3717,-0.3741,-0.3756,-0.3758,-0.3758,-0.3719,-0.3717,-0.3715,0,0,0,0,0,0,-0.343,-0.3435,-0.3492,-0.3475,-0.3484,-0.3549,-0.3557,-0.357,-0.3587,-0.3646,-0.3659,-0.3629,-0.3708,-0.3716,-0.372,-0.3743,-0.3758,-0.3759,-0.3721,-0.3718,-0.3716,-0.3743,0,0,0,0,0,0,-0.3428,-0.3434,-0.3429,-0.3474,-0.3484,-0.3513,-0.3555,-0.3569,-0.3586,-0.3596,-0.3653,-0.3665,-0.3711,-0.3718,-0.3722,-0.3745,-0.376,-0.3724,-0.372,-0.3717,-0.3744,-0.3741,-0.3739,0,0,0,0,0,-0.3425,-0.3424,-0.3428,-0.3434,-0.3478,-0.3513,-0.3521,-0.3577,-0.3583,-0.3598,-0.362,-0.3663,-0.3699,-0.3717,-0.3722,-0.3747,-0.3725,-0.3721,-0.3717,-0.3745,-0.3742,-0.3739,0,0,0,0,0,0,-0.34,-0.3435,-0.3442,-0.3451,-0.3481,-0.3532,-0.3542,-0.356,-0.3586,-0.3592,-0.3637,-0.3649,-0.367,-0.3673,-0.3692,-0.3715,-0.3719,-0.3716,-0.3739,-0.3736,-0.3733,-0.3753,-0.3761,0,0,0,0,0,-0.3384,-0.339,-0.3428,-0.3432,-0.3443,-0.3479,-0.3494,-0.3529,-0.3558,-0.3573,-0.3608,-0.3628,-0.365,-0.3666,-0.3687,-0.3685,-0.3706,-0.3697,-0.3695,-0.3693,-0.3706,-0.3718,-0.3719,-0.3701,-0.3701,-0.3701,0,0,-0.3372,-0.3391,-0.3394,-0.3425,-0.3448,-0.3475,-0.3497,-0.3522,-0.355,-0.3573,-0.3608,-0.3622,-0.3643,-0.3668,-0.3676,-0.368,-0.371,-0.3688,-0.3687,-0.3701,-0.3714,-0.3716,-0.3718,-0.3698,-0.3699,-0.3699,0,0,-0.3364,-0.3368,-0.3377,-0.34,-0.3433,-0.3462,-0.3463,-0.3506,-0.3534,-0.3549,-0.3579,-0.3595,-0.3618,-0.3656,-0.3671,-0.3646,-0.3696,-0.3646,-0.3659,-0.367,-0.3673,-0.3676,-0.3728,-0.3735,-0.3645,-0.3645,-0.3645,0,-0.3349,-0.3366,-0.3384,-0.3404,-0.3426,-0.3452,-0.3477,-0.3502,-0.3543,-0.3563,-0.3564,-0.3602,-0.362,-0.366,-0.3662,-0.365,-0.3671,-0.3684,-0.3673,-0.3676,-0.3678,-0.373,-0.3738,-0.3646,-0.3646,-0.3646,-0.3646,0,-0.3355,-0.337,-0.3376,-0.3412,-0.3437,-0.3459,-0.35,-0.3524,-0.3542,-0.3572,-0.3605,-0.3618,-0.3647,-0.3649,-0.3656,-0.3683,-0.3699,-0.3674,-0.3697,-0.3683,-0.3737,-0.3745,-0.3647,-0.3647,-0.3647,-0.3646,0,0,-0.3324,-0.3372,-0.3374,-0.3398,-0.3444,-0.3472,-0.3509,-0.3561,-0.3596,-0.3614,-0.3658,-0.3675,-0.3679,-0.3692,-0.3697,-0.3706,-0.3748,-0.3699,-0.3699,-0.3779,-0.3807,-0.3936,-0.3957,-0.3723,-0.3724,-0.3724,-0.3847,0,-0.3325,-0.3363,-0.339,-0.3434,-0.3461,-0.3502,-0.3539,-0.3587,-0.3626,-0.3673,-0.3684,-0.3718,-0.3696,-0.3709,-0.3715,-0.3736,-0.3765,-0.3719,-0.3782,-0.3785,-0.3925,-0.3968,-0.4121,-0.4253,-0.3855,-0.3857,-0.3857,0,-0.3324,-0.3355,-0.3391,-0.346,-0.3474,-0.3502,-0.3578,-0.3618,-0.3685,-0.3712,-0.3744,-0.3761,-0.3787,-0.3755,-0.38,-0.3771,-0.3796,-0.3809,-0.3814,-0.3933,-0.3929,-0.4193,-0.4283,-0.4307,-0.387,-0.3869,-0.3868,0,-0.3301,-0.336,-0.3389,-0.3409,-0.3482,-0.3508,-0.355,-0.3624,-0.3673,-0.3735,-0.378,-0.3804,-0.383,-0.3836,-0.3875,-0.3832,-0.3941,-0.3881,-0.4032,-0.4042,-0.4187,-0.4209,-0.4335,-0.3926,-0.3926,-0.3926,-0.3925,0,-0.3294,-0.3318,-0.3377,-0.3393,-0.3439,-0.3494,-0.3553,-0.3604,-0.3686,-0.3771,-0.3788,-0.3869,-0.3848,-0.3914,-0.3915,-0.4031,-0.3975,-0.407,-0.4089,-0.4201,-0.4222,-0.4259,-0.4243,-0.393,-0.3929,-0.3928,-0.3928,0,-0.3252,-0.3292,-0.3332,-0.3402,-0.3425,-0.3454,-0.3549,-0.3604,-0.3679,-0.3794,-0.3816,-0.3918,-0.4024,-0.4046,-0.4097,-0.4119,-0.4213,-0.424,-0.4402,-0.4439,-0.4589,-0.4568,-0.4556,-0.4522,-0.4422,-0.4426,-0.4429,0,-0.3231,-0.3241,-0.3316,-0.3343,-0.3369,-0.3426,-0.3476,-0.3576,-0.366,-0.3853,-0.3921,-0.4059,-0.4222,-0.4369,-0.4459,-0.4553,-0.4403,-0.4679,-0.462,-0.4664,-0.4652,-0.4449,-0.4403,-0.4824,-0.483,-0.4836,-0.484,0,-0.3173,-0.3194,-0.3222,-0.329,-0.3341,-0.3414,-0.3507,-0.3588,-0.3749,-0.39,-0.416,-0.4316,-0.4553,-0.4811,-0.4911,-0.4897,-0.4686,-0.479,-0.4784,-0.4961,-0.4799,-0.4756,-0.4684,-0.4886,-0.4882,-0.4878,-0.4876,-0.4874,-0.3105,-0.3109,-0.3153,-0.322,-0.3295,-0.3406,-0.3486,-0.3693,-0.3889,-0.4283,-0.4386,-0.4874,-0.5115,-0.5345,-0.5304,-0.5363,-0.5083,-0.5272,-0.5242,-0.5026,-0.5003,-0.5065,-0.5309,-0.5307,-0.5305,-0.5303,-0.5302,0,-0.3006,-0.3032,-0.3087,-0.3189,-0.3281,-0.3333,-0.3511,-0.3652,-0.3973,-0.4531,-0.4899,-0.567,-0.5888,-0.6008,-0.6117,-0.5927,-0.563,-0.5678,-0.5437,-0.5363,-0.5433,-0.5466,-0.582,-0.582,-0.582,-0.582,-0.582,-0.582,-0.2943,-0.2948,-0.2998,-0.3133,-0.3227,-0.332,-0.3419,-0.3703,-0.4095,-0.4945,-0.5735,-0.6325,-0.6318,-0.6771,-0.6583,-0.6266,-0.5943,-0.5757,-0.5568,-0.5686,-0.5643,-0.5602,-0.5628,-0.6011,-0.6011,-0.5452,-0.5449,-0.5446]},{"header":{"parameterUnit":"m.s-1","parameterCategory":2,"la1":30.2991,"la2":30.254,"lo1":-89.0895,"lo2":-89.0444,"dy":0.0017,"dx":0.0017,"nx":28,"ny":28,"refTime":"2023-10-10T21:00:00:Z","depth":"0","parameterNumber":3,"parameterNumberName":"V-component_of_CURRENTS"},"data":[0,0,0,0,0,0,0,0,0,0,0,0,0,0,0,0,0,0,0,0,0,0,0,0,0,0,0,0,0,0,0,0,0,0,0,0,0,0,0,0,0,0,0,0,0,0,0,0,0,0,0,0,0,0,0,0,0,0,-0.0857,-0.0856,0,-0.0762,-0.0761,-0.076,-0.0704,-0.0704,-0.0704,-0.0704,-0.0618,-0.0616,-0.0614,0,0,0,0,0,0,0,0,0,0,0,0,0,-0.0912,-0.0912,-0.0857,-0.0856,-0.0855,-0.0762,-0.0761,-0.0759,-0.0704,-0.0704,-0.0704,-0.0704,-0.0619,-0.0616,-0.0614,0,0,0,0,0,0,0,0,0,0,0,0,0,-0.0858,-0.0911,-0.0857,-0.0818,-0.0813,-0.0763,-0.0761,-0.0759,-0.0705,-0.0704,-0.0704,-0.0704,-0.062,-0.0617,-0.0613,-0.0593,0,0,-0.0603,-0.0601,0,0,0,0,0,0,0,0,-0.0861,-0.0856,-0.0825,-0.082,-0.0816,-0.0747,-0.0749,-0.0705,-0.0705,-0.0744,-0.0704,-0.0704,-0.0663,-0.0656,-0.0636,-0.0589,-0.0586,-0.0603,-0.0601,-0.0599,-0.0598,0,0,0,0,0,0,0,-0.0865,-0.0859,-0.0817,-0.0824,-0.0818,-0.0778,-0.0771,-0.074,-0.0704,-0.074,-0.0737,-0.0729,-0.0661,-0.0639,-0.0633,-0.0584,-0.0603,-0.06,-0.0598,-0.0596,-0.0534,-0.0535,0,0,0,0,0,0,-0.0885,-0.0863,-0.082,-0.0815,-0.0841,-0.0778,-0.077,-0.0767,-0.0704,-0.0694,-0.0729,-0.0727,-0.0645,-0.0637,-0.063,-0.0612,-0.0599,-0.0596,-0.0594,-0.0534,-0.0534,-0.0535,0,0,0,0,0,0,-0.0887,-0.0882,-0.0824,-0.0838,-0.0828,-0.0778,-0.0775,-0.0766,-0.0741,-0.0696,-0.0686,-0.0715,-0.0645,-0.0635,-0.0607,-0.0608,-0.0594,-0.0591,-0.0533,-0.0534,-0.0534,-0.057,0,0,0,0,0,0,-0.0889,-0.0884,-0.089,-0.084,-0.0828,-0.0799,-0.0775,-0.0764,-0.0738,-0.0734,-0.068,-0.0672,-0.0644,-0.0613,-0.0604,-0.0603,-0.0589,-0.0533,-0.0534,-0.0534,-0.0569,-0.0572,-0.0575,0,0,0,0,0,-0.0891,-0.09,-0.0891,-0.0885,-0.0838,-0.0799,-0.0789,-0.0751,-0.0738,-0.0728,-0.0696,-0.0674,-0.0611,-0.061,-0.06,-0.0598,-0.0533,-0.0533,-0.0534,-0.0567,-0.0571,-0.0575,0,0,0,0,0,0,-0.0918,-0.0893,-0.0883,-0.0881,-0.0847,-0.0791,-0.0781,-0.0753,-0.0718,-0.0715,-0.0672,-0.0662,-0.064,-0.0616,-0.0616,-0.0585,-0.057,-0.0569,-0.0599,-0.0602,-0.0606,-0.0608,-0.0586,0,0,0,0,0,-0.0931,-0.0936,-0.0896,-0.0894,-0.0881,-0.0831,-0.0811,-0.0783,-0.0746,-0.0729,-0.0691,-0.0659,-0.0635,-0.0617,-0.059,-0.0568,-0.0545,-0.0564,-0.0567,-0.057,-0.0566,-0.0531,-0.0531,-0.0538,-0.0538,-0.0538,0,0,-0.094,-0.0928,-0.093,-0.0901,-0.0872,-0.0854,-0.0818,-0.079,-0.0771,-0.0727,-0.0693,-0.0666,-0.0632,-0.061,-0.0598,-0.059,-0.0558,-0.0571,-0.0573,-0.0568,-0.0532,-0.0531,-0.0531,-0.0538,-0.0538,-0.0538,0,0,-0.0963,-0.0951,-0.0964,-0.094,-0.0905,-0.0871,-0.0865,-0.081,-0.0784,-0.075,-0.0719,-0.0694,-0.0647,-0.0624,-0.0608,-0.0613,-0.0577,-0.0607,-0.0619,-0.0586,-0.0585,-0.0584,-0.0565,-0.0562,-0.0607,-0.0607,-0.0607,0,-0.0977,-0.0986,-0.0957,-0.0956,-0.0942,-0.0883,-0.088,-0.084,-0.0781,-0.0762,-0.0748,-0.0682,-0.0655,-0.0629,-0.0632,-0.0618,-0.0597,-0.0607,-0.059,-0.0588,-0.0586,-0.0567,-0.0563,-0.0609,-0.0608,-0.0608,-0.0608,0,-0.1004,-0.1009,-0.101,-0.0996,-0.0972,-0.0958,-0.0906,-0.0874,-0.0837,-0.0795,-0.0757,-0.0714,-0.0677,-0.0667,-0.0648,-0.0624,-0.0613,-0.0599,-0.0579,-0.0587,-0.0567,-0.0562,-0.0611,-0.0611,-0.061,-0.061,0,0,-0.1042,-0.1036,-0.1036,-0.1043,-0.0994,-0.0979,-0.0945,-0.0901,-0.0882,-0.082,-0.0793,-0.0748,-0.0716,-0.0696,-0.0667,-0.0636,-0.061,-0.0613,-0.061,-0.0593,-0.0543,-0.0486,-0.0475,-0.0587,-0.0587,-0.0586,-0.0539,0,-0.1072,-0.1101,-0.1075,-0.1082,-0.1091,-0.103,-0.101,-0.0959,-0.0902,-0.0857,-0.0798,-0.0763,-0.0729,-0.0715,-0.0676,-0.062,-0.0596,-0.0624,-0.0538,-0.0536,-0.0483,-0.0467,-0.041,-0.0358,-0.0534,-0.0533,-0.0532,0,-0.1107,-0.1126,-0.1154,-0.1148,-0.1144,-0.1133,-0.109,-0.1056,-0.0972,-0.0932,-0.0868,-0.081,-0.0748,-0.0725,-0.0625,-0.0642,-0.06,-0.0558,-0.0555,-0.0483,-0.0469,-0.0375,-0.0342,-0.0214,-0.0524,-0.0525,-0.0526,0,-0.1167,-0.1175,-0.1208,-0.1204,-0.1185,-0.1182,-0.1157,-0.1086,-0.1064,-0.0971,-0.0942,-0.0848,-0.0804,-0.0723,-0.0617,-0.0623,-0.0507,-0.0508,-0.0422,-0.0419,-0.0342,-0.0332,-0.017,-0.0453,-0.0454,-0.0454,-0.0454,0,-0.1216,-0.1237,-0.1245,-0.1264,-0.1301,-0.1249,-0.1254,-0.1208,-0.1142,-0.1122,-0.0989,-0.0949,-0.0799,-0.0703,-0.0622,-0.0489,-0.0509,-0.0415,-0.0394,-0.0354,-0.0347,-0.021,-0.0117,-0.0452,-0.0452,-0.0453,-0.0453,0,-0.1275,-0.1278,-0.1321,-0.1329,-0.1336,-0.1359,-0.1337,-0.1338,-0.1249,-0.1214,-0.1188,-0.1024,-0.0879,-0.0728,-0.0587,-0.0496,-0.0302,-0.0344,-0.0309,-0.0283,-0.0078,0.0011,0.0228,0.0159,-0.0238,-0.0237,-0.0235,0,-0.1307,-0.1339,-0.1388,-0.1434,-0.1444,-0.1465,-0.1489,-0.1415,-0.1406,-0.1267,-0.1265,-0.1089,-0.0977,-0.0707,-0.0484,-0.0299,-0.0236,-0.0162,-0.0158,-0.004,0.0073,0.0123,0.0048,-0.0083,-0.008,-0.0078,-0.0076,0,-0.1368,-0.1388,-0.1433,-0.1549,-0.1598,-0.1641,-0.1655,-0.167,-0.1573,-0.1525,-0.1436,-0.1322,-0.0964,-0.0676,-0.0367,-0.0251,-0.0052,-0.0112,0.0011,0.0223,0.029,0.0224,-0.0157,-0.0057,-0.0059,-0.006,-0.0061,-0.0062,-0.1411,-0.1473,-0.1559,-0.1672,-0.1743,-0.1834,-0.1918,-0.1899,-0.1907,-0.1859,-0.1629,-0.1423,-0.0826,-0.0349,-0.0234,0.0172,0.0094,0.0256,0.0354,0.0389,0.0347,0.0007,0.0134,0.0133,0.0132,0.0132,0.0131,0,-0.1471,-0.1562,-0.168,-0.1838,-0.1987,-0.197,-0.2057,-0.2157,-0.2226,-0.2012,-0.1899,-0.1131,-0.0643,-0.0129,0.0549,0.0671,0.0574,0.071,0.0794,0.0677,0.0393,0.0422,0.0617,0.0617,0.0617,0.0617,0.0617,0.0616,-0.1509,-0.1647,-0.1738,-0.2037,-0.2161,-0.2378,-0.2462,-0.2562,-0.2475,-0.22,-0.1723,-0.1318,-0.0232,0.102,0.1404,0.1278,0.1213,0.1245,0.1144,0.1008,0.0972,0.0937,0.0982,0.1293,0.1294,0.133,0.1332,0.1334]}],[{"header":{"parameterUnit":"m.s-1","parameterCategory":2,"la1":30.2991,"la2":30.254,"lo1":-89.0895,"lo2":-89.0444,"dy":0.0017,"dx":0.0017,"nx":28,"ny":28,"refTime":"2023-10-10T21:00:00:Z","depth":"2","parameterNumber":2,"parameterNumberName":"U-component_of_CURRENTS"},"data":[0,0,0,0,0,0,0,0,0,0,0,0,0,0,0,0,0,0,0,0,0,0,0,0,0,0,0,0,0,0,0,0,0,0,0,0,0,0,0,0,0,0,0,0,0,0,0,0,0,0,0,0,0,0,0,0,0,0,-0.3435,-0.3436,0,-0.3514,-0.3515,-0.3516,-0.3624,-0.3626,-0.3628,-0.3629,-0.3724,-0.3725,-0.3726,0,0,0,0,0,0,0,0,0,0,0,0,0,-0.3374,-0.3375,-0.3435,-0.3436,-0.3437,-0.3514,-0.3515,-0.3516,-0.3624,-0.3626,-0.3628,-0.363,-0.3724,-0.3725,-0.3726,0,0,0,0,0,0,0,0,0,0,0,0,0,-0.3422,-0.3375,-0.3435,-0.3499,-0.3505,-0.3514,-0.3515,-0.3517,-0.3623,-0.3626,-0.3629,-0.3631,-0.3724,-0.3725,-0.3726,-0.3683,0,0,-0.3731,-0.3731,0,0,0,0,0,0,0,0,-0.342,-0.3425,-0.3489,-0.3495,-0.3502,-0.3561,-0.3529,-0.3573,-0.3623,-0.358,-0.3629,-0.3632,-0.3668,-0.3675,-0.3685,-0.3688,-0.3692,-0.3731,-0.3732,-0.3732,-0.3733,0,0,0,0,0,0,0,-0.3416,-0.3422,-0.3467,-0.3489,-0.3497,-0.3523,-0.3532,-0.3537,-0.361,-0.3584,-0.3591,-0.3598,-0.3673,-0.3683,-0.3688,-0.3693,-0.3731,-0.3732,-0.3733,-0.3733,-0.3695,-0.3694,0,0,0,0,0,0,-0.3401,-0.3418,-0.3465,-0.347,-0.3465,-0.3521,-0.3533,-0.354,-0.361,-0.3622,-0.3595,-0.3602,-0.368,-0.3686,-0.3692,-0.3716,-0.3732,-0.3733,-0.3734,-0.3697,-0.3695,-0.3693,0,0,0,0,0,0,-0.34,-0.3405,-0.3462,-0.3445,-0.3454,-0.352,-0.3527,-0.354,-0.3558,-0.3618,-0.3632,-0.3601,-0.3682,-0.369,-0.3696,-0.3718,-0.3734,-0.3735,-0.3699,-0.3696,-0.3694,-0.3719,0,0,0,0,0,0,-0.3398,-0.3404,-0.3399,-0.3444,-0.3455,-0.3484,-0.3525,-0.354,-0.3557,-0.3567,-0.3626,-0.3638,-0.3685,-0.3693,-0.3697,-0.3721,-0.3736,-0.3702,-0.3698,-0.3695,-0.3721,-0.3718,-0.3715,0,0,0,0,0,-0.3395,-0.3394,-0.3398,-0.3404,-0.3448,-0.3483,-0.3492,-0.3547,-0.3554,-0.357,-0.3592,-0.3637,-0.3675,-0.3693,-0.3698,-0.3722,-0.3703,-0.3699,-0.3695,-0.3722,-0.3718,-0.3715,0,0,0,0,0,0,-0.3371,-0.3405,-0.3412,-0.3421,-0.3451,-0.3502,-0.3513,-0.3531,-0.3558,-0.3564,-0.361,-0.3623,-0.3645,-0.3649,-0.3667,-0.3692,-0.3696,-0.3693,-0.3715,-0.3711,-0.3709,-0.3728,-0.3738,0,0,0,0,0,-0.3354,-0.3361,-0.3398,-0.3402,-0.3414,-0.345,-0.3465,-0.35,-0.3529,-0.3545,-0.3581,-0.3602,-0.3625,-0.3641,-0.3663,-0.3662,-0.3684,-0.3675,-0.3672,-0.367,-0.3683,-0.3695,-0.3696,-0.3679,-0.3679,-0.3679,0,0,-0.3343,-0.3362,-0.3365,-0.3396,-0.3419,-0.3446,-0.3467,-0.3493,-0.3521,-0.3546,-0.3581,-0.3596,-0.3618,-0.3644,-0.3652,-0.3656,-0.3687,-0.3665,-0.3664,-0.3678,-0.3691,-0.3694,-0.3696,-0.3676,-0.3677,-0.3677,0,0,-0.3335,-0.3339,-0.3348,-0.3371,-0.3404,-0.3433,-0.3433,-0.3477,-0.3505,-0.352,-0.3552,-0.3568,-0.3593,-0.3631,-0.3647,-0.3621,-0.3672,-0.3621,-0.3634,-0.3646,-0.3649,-0.3652,-0.3703,-0.3711,-0.3621,-0.3621,-0.3621,0,-0.332,-0.3338,-0.3355,-0.3375,-0.3397,-0.3423,-0.3448,-0.3473,-0.3514,-0.3534,-0.3536,-0.3575,-0.3595,-0.3635,-0.3637,-0.3626,-0.3647,-0.3659,-0.3648,-0.3651,-0.3654,-0.3706,-0.3714,-0.3622,-0.3622,-0.3622,-0.3622,0,-0.3326,-0.3341,-0.3348,-0.3383,-0.3408,-0.343,-0.3471,-0.3495,-0.3512,-0.3543,-0.3576,-0.3591,-0.3621,-0.3623,-0.363,-0.3658,-0.3674,-0.365,-0.3672,-0.3658,-0.3712,-0.372,-0.3623,-0.3623,-0.3622,-0.3622,0,0,-0.3296,-0.3344,-0.3346,-0.337,-0.3416,-0.3443,-0.348,-0.3531,-0.3566,-0.3585,-0.3628,-0.3647,-0.3651,-0.3664,-0.3671,-0.368,-0.3721,-0.3673,-0.3674,-0.3754,-0.3781,-0.3909,-0.393,-0.3697,-0.3698,-0.3698,-0.3822,0,-0.3298,-0.3335,-0.3362,-0.3405,-0.3432,-0.3473,-0.351,-0.3557,-0.3596,-0.3642,-0.3654,-0.3688,-0.3667,-0.3682,-0.3687,-0.3709,-0.3738,-0.3693,-0.3757,-0.376,-0.3899,-0.3942,-0.3381,-0.3453,-0.3829,-0.3831,-0.3832,0,-0.3297,-0.3328,-0.3364,-0.3431,-0.3446,-0.3473,-0.3549,-0.3588,-0.3655,-0.3682,-0.3713,-0.3731,-0.3757,-0.3727,-0.3772,-0.3744,-0.3769,-0.3783,-0.3787,-0.3907,-0.3903,-0.3519,-0.3453,-0.3845,-0.3844,-0.3843,-0.3842,0,-0.3274,-0.3332,-0.3361,-0.3381,-0.3454,-0.348,-0.3521,-0.3594,-0.3643,-0.3705,-0.3749,-0.3773,-0.38,-0.3808,-0.3847,-0.3805,-0.3914,-0.3855,-0.4005,-0.4015,-0.3554,-0.3524,-0.3901,-0.3901,-0.39,-0.39,-0.39,0,-0.3266,-0.3291,-0.335,-0.3365,-0.3412,-0.3466,-0.3525,-0.3575,-0.3657,-0.3741,-0.3758,-0.3838,-0.3818,-0.3884,-0.3886,-0.4003,-0.3947,-0.4043,-0.4062,-0.3552,-0.3523,-0.386,-0.3853,-0.3905,-0.3904,-0.3903,-0.3902,0,-0.3226,-0.3265,-0.3305,-0.3375,-0.3397,-0.3427,-0.3521,-0.3576,-0.365,-0.3764,-0.3786,-0.3887,-0.3992,-0.4016,-0.4067,-0.409,-0.4157,-0.4212,-0.3661,-0.3619,-0.4238,-0.423,-0.4383,-0.4389,-0.4394,-0.4398,-0.4401,0,-0.3204,-0.3214,-0.329,-0.3316,-0.3342,-0.3399,-0.3449,-0.3548,-0.3632,-0.3822,-0.389,-0.4027,-0.4147,-0.4294,-0.4126,-0.4147,-0.4345,-0.3908,-0.3752,-0.4288,-0.429,-0.4275,-0.4261,-0.3117,-0.311,-0.3104,-0.3099,0,-0.3146,-0.3168,-0.3195,-0.3264,-0.3314,-0.3387,-0.348,-0.356,-0.3719,-0.3828,-0.4086,-0.4199,-0.4196,-0.397,-0.3976,-0.3915,-0.3849,-0.3811,-0.442,-0.3165,-0.3127,-0.3121,-0.314,-0.3045,-0.305,-0.3054,-0.3057,-0.3059,-0.3079,-0.3083,-0.3127,-0.3194,-0.3269,-0.3379,-0.3458,-0.3485,-0.3619,-0.371,-0.4012,-0.402,-0.3887,-0.3617,-0.3476,-0.3326,-0.3592,-0.3527,-0.3527,-0.3538,-0.3454,-0.3434,-0.3394,-0.34,-0.3407,-0.3412,-0.3417,0,-0.2936,-0.3006,-0.3061,-0.3163,-0.318,-0.3306,-0.3482,-0.339,-0.3428,-0.353,-0.363,-0.3274,-0.3108,-0.3093,-0.2644,-0.2658,-0.2378,-0.2737,-0.2299,-0.2354,-0.2402,-0.2244,-0.1871,-0.1868,-0.1866,-0.1864,0,0,-0.2862,-0.2843,-0.2891,-0.2971,-0.3108,-0.3062,-0.3157,-0.3021,-0.298,-0.2831,-0.2852,-0.3011,-0.3077,-0.2503,-0.2282,-0.2076,-0.2221,-0.1976,-0.318,-0.2718,-0.2765,-0.279,-0.2607,0,0,0,0,0]},{"header":{"parameterUnit":"m.s-1","parameterCategory":2,"la1":30.2991,"la2":30.254,"lo1":-89.0895,"lo2":-89.0444,"dy":0.0017,"dx":0.0017,"nx":28,"ny":28,"refTime":"2023-10-10T21:00:00:Z","depth":"2","parameterNumber":3,"parameterNumberName":"V-component_of_CURRENTS"},"data":[0,0,0,0,0,0,0,0,0,0,0,0,0,0,0,0,0,0,0,0,0,0,0,0,0,0,0,0,0,0,0,0,0,0,0,0,0,0,0,0,0,0,0,0,0,0,0,0,0,0,0,0,0,0,0,0,0,0,-0.083,-0.0829,0,-0.0736,-0.0734,-0.0733,-0.0679,-0.0679,-0.0679,-0.0679,-0.0594,-0.0592,-0.059,0,0,0,0,0,0,0,0,0,0,0,0,0,-0.0885,-0.0885,-0.083,-0.0829,-0.0828,-0.0736,-0.0734,-0.0733,-0.0679,-0.0679,-0.0679,-0.0679,-0.0595,-0.0592,-0.0589,0,0,0,0,0,0,0,0,0,0,0,0,0,-0.0831,-0.0884,-0.083,-0.0791,-0.0787,-0.0736,-0.0734,-0.0732,-0.0679,-0.0679,-0.0679,-0.0679,-0.0596,-0.0592,-0.0589,-0.0569,0,0,-0.0579,-0.0577,0,0,0,0,0,0,0,0,-0.0834,-0.0829,-0.0798,-0.0794,-0.0789,-0.0721,-0.0723,-0.0679,-0.0679,-0.0718,-0.0679,-0.0679,-0.0639,-0.0632,-0.0611,-0.0565,-0.0562,-0.0579,-0.0577,-0.0575,-0.0574,0,0,0,0,0,0,0,-0.0838,-0.0832,-0.079,-0.0797,-0.0791,-0.0752,-0.0745,-0.0714,-0.0678,-0.0714,-0.0711,-0.0703,-0.0636,-0.0614,-0.0609,-0.056,-0.0579,-0.0576,-0.0574,-0.0572,-0.0511,-0.0511,0,0,0,0,0,0,-0.0858,-0.0836,-0.0793,-0.0788,-0.0814,-0.0752,-0.0743,-0.0741,-0.0678,-0.0669,-0.0704,-0.0701,-0.062,-0.0613,-0.0606,-0.0588,-0.0575,-0.0572,-0.057,-0.0511,-0.0511,-0.0511,0,0,0,0,0,0,-0.086,-0.0855,-0.0797,-0.0811,-0.0801,-0.0751,-0.0749,-0.0739,-0.0715,-0.067,-0.0661,-0.0689,-0.062,-0.061,-0.0583,-0.0584,-0.0571,-0.0567,-0.051,-0.0511,-0.0511,-0.0546,0,0,0,0,0,0,-0.0862,-0.0857,-0.0863,-0.0813,-0.0801,-0.0772,-0.0748,-0.0737,-0.0712,-0.0708,-0.0655,-0.0647,-0.0619,-0.0588,-0.058,-0.0579,-0.0565,-0.051,-0.051,-0.0511,-0.0545,-0.0548,-0.0551,0,0,0,0,0,-0.0864,-0.0873,-0.0864,-0.0859,-0.0811,-0.0772,-0.0762,-0.0725,-0.0711,-0.0702,-0.0671,-0.0649,-0.0587,-0.0586,-0.0576,-0.0574,-0.0509,-0.051,-0.0511,-0.0543,-0.0548,-0.0551,0,0,0,0,0,0,-0.0891,-0.0867,-0.0856,-0.0854,-0.082,-0.0764,-0.0755,-0.0727,-0.0692,-0.069,-0.0647,-0.0637,-0.0615,-0.0592,-0.0592,-0.0561,-0.0547,-0.0545,-0.0575,-0.0578,-0.0581,-0.0584,-0.0562,0,0,0,0,0,-0.0904,-0.0909,-0.0869,-0.0867,-0.0854,-0.0805,-0.0785,-0.0757,-0.072,-0.0703,-0.0666,-0.0634,-0.061,-0.0593,-0.0566,-0.0545,-0.0521,-0.054,-0.0543,-0.0546,-0.0542,-0.0508,-0.0507,-0.0514,-0.0514,-0.0514,0,0,-0.0914,-0.0901,-0.0903,-0.0874,-0.0845,-0.0827,-0.0792,-0.0764,-0.0744,-0.0701,-0.0668,-0.0641,-0.0608,-0.0586,-0.0574,-0.0566,-0.0534,-0.0547,-0.0549,-0.0544,-0.0509,-0.0508,-0.0507,-0.0515,-0.0515,-0.0515,0,0,-0.0937,-0.0925,-0.0937,-0.0913,-0.0878,-0.0844,-0.0839,-0.0784,-0.0757,-0.0724,-0.0694,-0.0669,-0.0623,-0.0599,-0.0584,-0.0588,-0.0553,-0.0582,-0.0595,-0.0562,-0.0561,-0.0559,-0.0541,-0.0537,-0.0582,-0.0582,-0.0582,0,-0.0951,-0.096,-0.0931,-0.093,-0.0915,-0.0856,-0.0853,-0.0813,-0.0754,-0.0736,-0.0722,-0.0657,-0.063,-0.0604,-0.0607,-0.0594,-0.0572,-0.0583,-0.0565,-0.0563,-0.0561,-0.0542,-0.0538,-0.0584,-0.0584,-0.0584,-0.0583,0,-0.0977,-0.0982,-0.0984,-0.0969,-0.0946,-0.0932,-0.0879,-0.0848,-0.081,-0.0769,-0.073,-0.0688,-0.0651,-0.0642,-0.0623,-0.0599,-0.0588,-0.0574,-0.0555,-0.0562,-0.0542,-0.0538,-0.0587,-0.0586,-0.0585,-0.0585,0,0,-0.1015,-0.1009,-0.1009,-0.1016,-0.0968,-0.0953,-0.0918,-0.0874,-0.0855,-0.0793,-0.0766,-0.0721,-0.0689,-0.067,-0.0641,-0.061,-0.0584,-0.0587,-0.0585,-0.0568,-0.0518,-0.0461,-0.045,-0.0562,-0.0561,-0.0561,-0.0514,0,-0.1046,-0.1074,-0.1048,-0.1055,-0.1064,-0.1003,-0.0983,-0.0931,-0.0875,-0.083,-0.077,-0.0736,-0.0702,-0.0689,-0.065,-0.0594,-0.0571,-0.0599,-0.0513,-0.0511,-0.0458,-0.0442,-0.0299,-0.024,-0.0509,-0.0508,-0.0507,0,-0.1081,-0.1099,-0.1128,-0.1121,-0.1117,-0.1106,-0.1063,-0.1029,-0.0945,-0.0905,-0.0841,-0.0783,-0.0721,-0.0698,-0.0599,-0.0616,-0.0574,-0.0533,-0.053,-0.0458,-0.0444,-0.0273,-0.022,-0.0499,-0.0499,-0.05,-0.05,0,-0.1141,-0.1148,-0.1181,-0.1177,-0.1158,-0.1156,-0.113,-0.106,-0.1037,-0.0944,-0.0915,-0.0821,-0.0777,-0.0696,-0.0591,-0.0597,-0.0482,-0.0482,-0.0397,-0.0394,-0.0244,-0.0228,-0.0428,-0.0428,-0.0428,-0.0429,-0.0429,0,-0.119,-0.1211,-0.1219,-0.1238,-0.1275,-0.1223,-0.1228,-0.1182,-0.1115,-0.1096,-0.0962,-0.0922,-0.0772,-0.0677,-0.0596,-0.0464,-0.0483,-0.039,-0.0369,-0.0255,-0.0241,-0.0442,-0.0444,-0.0427,-0.0427,-0.0428,-0.0428,0,-0.1249,-0.1252,-0.1295,-0.1303,-0.131,-0.1333,-0.1311,-0.1312,-0.1223,-0.1188,-0.1162,-0.0997,-0.0853,-0.0701,-0.0561,-0.047,-0.0357,-0.0319,-0.0198,-0.0162,-0.0298,-0.0303,-0.0218,-0.0216,-0.0213,-0.0212,-0.021,0,-0.1281,-0.1313,-0.1362,-0.1409,-0.1419,-0.144,-0.1464,-0.1389,-0.138,-0.1241,-0.1239,-0.1062,-0.0939,-0.067,-0.0382,-0.0179,-0.0314,-0.0048,-0.0033,-0.0284,-0.0272,-0.0281,-0.0288,0.0144,0.0148,0.0151,0.0154,0,-0.1342,-0.1362,-0.1407,-0.1523,-0.1573,-0.1615,-0.1629,-0.1644,-0.1547,-0.1484,-0.1395,-0.127,-0.0856,-0.049,-0.016,-0.0051,-0.0054,0.0027,-0.0235,0.0061,0.006,0.007,0.005,0.0186,0.0183,0.018,0.0179,0.0177,-0.1385,-0.1448,-0.1533,-0.1646,-0.1718,-0.1808,-0.1891,-0.1812,-0.1798,-0.1701,-0.1543,-0.1314,-0.0835,-0.0295,0.004,0.0323,0.0227,0.0222,0.021,0.0195,0.0221,0.0224,0.0385,0.0383,0.0381,0.038,0.0378,0,-0.1409,-0.1536,-0.1655,-0.1812,-0.1905,-0.1944,-0.203,-0.2016,-0.1986,-0.184,-0.1692,-0.1183,-0.0644,-0.0236,0.0367,0.0661,0.068,0.0593,0.0596,0.0565,0.0537,0.0579,0.0839,0.084,0.0841,0.0842,0,0,-0.1436,-0.1553,-0.1643,-0.1905,-0.2066,-0.2181,-0.2261,-0.2203,-0.2095,-0.1936,-0.1765,-0.1412,-0.0765,-0.0295,0.0215,0.0523,0.04,0.0526,0.014,0.0057,0.0023,0.0334,0.0366,0,0,0,0,0]}],[{"header":{"parameterUnit":"m.s-1","parameterCategory":2,"la1":30.2991,"la2":30.254,"lo1":-89.0895,"lo2":-89.0444,"dy":0.0017,"dx":0.0017,"nx":28,"ny":28,"refTime":"2023-10-10T21:00:00:Z","depth":"4","parameterNumber":2,"parameterNumberName":"U-component_of_CURRENTS"},"data":[0,0,0,0,0,0,0,0,0,0,0,0,0,0,0,0,0,0,0,0,0,0,0,0,0,0,0,0,0,0,0,0,0,0,0,0,0,0,0,0,0,0,0,0,0,0,0,0,0,0,0,0,0,0,0,0,0,0,-0.1449,-0.1449,0,-0.1406,-0.1406,-0.1405,-0.1387,-0.1388,-0.1388,-0.1389,-0.1412,-0.1412,-0.1412,0,0,0,0,0,0,0,0,0,0,0,0,0,-0.1445,-0.1445,-0.1449,-0.1449,-0.1449,-0.1407,-0.1405,-0.1404,-0.1387,-0.1388,-0.1389,-0.1389,-0.1412,-0.1412,-0.1412,0,0,0,0,0,0,0,0,0,0,0,0,0,-0.1424,-0.1445,-0.1449,-0.144,-0.1439,-0.1407,-0.1405,-0.1404,-0.1387,-0.1388,-0.1389,-0.139,-0.1412,-0.1412,-0.1412,-0.1393,0,0,-0.1412,-0.1412,0,0,0,0,0,0,0,0,-0.1425,-0.1423,-0.1441,-0.144,-0.144,-0.1408,-0.1413,-0.1406,-0.1387,-0.14,-0.1389,-0.139,-0.142,-0.1419,-0.14,-0.1394,-0.1395,-0.1412,-0.1412,-0.1412,-0.1412,0,0,0,0,0,0,0,-0.1427,-0.1425,-0.1426,-0.1441,-0.144,-0.1414,-0.1412,-0.141,-0.1402,-0.1399,-0.1399,-0.1404,-0.1419,-0.14,-0.14,-0.1395,-0.1412,-0.1412,-0.1412,-0.1412,-0.1461,-0.1462,0,0,0,0,0,0,-0.1447,-0.1426,-0.1428,-0.1426,-0.1441,-0.1414,-0.1411,-0.1412,-0.14,-0.1401,-0.1403,-0.1403,-0.1399,-0.14,-0.1401,-0.1451,-0.1412,-0.1412,-0.1412,-0.146,-0.1461,-0.1463,0,0,0,0,0,0,-0.1446,-0.1447,-0.143,-0.143,-0.1427,-0.1414,-0.1415,-0.1411,-0.1421,-0.1404,-0.1404,-0.1421,-0.14,-0.1401,-0.1416,-0.145,-0.1412,-0.1412,-0.1458,-0.146,-0.1462,-0.1505,0,0,0,0,0,0,-0.1446,-0.1447,-0.1461,-0.1431,-0.1428,-0.1432,-0.1414,-0.141,-0.1423,-0.1423,-0.1419,-0.1419,-0.1401,-0.1416,-0.1416,-0.1449,-0.1412,-0.1457,-0.1459,-0.1462,-0.1502,-0.1508,-0.1514,0,0,0,0,0,-0.1446,-0.1456,-0.1462,-0.1463,-0.1445,-0.1434,-0.1429,-0.1418,-0.1424,-0.143,-0.1424,-0.1421,-0.1433,-0.1416,-0.1416,-0.145,-0.1456,-0.1459,-0.1461,-0.15,-0.1507,-0.1514,0,0,0,0,0,0,-0.1457,-0.1455,-0.146,-0.147,-0.1467,-0.1434,-0.1442,-0.1437,-0.1433,-0.1446,-0.1425,-0.1425,-0.1454,-0.1446,-0.1429,-0.1474,-0.1449,-0.1452,-0.1478,-0.1485,-0.1491,-0.1506,-0.1412,0,0,0,0,0,-0.147,-0.1481,-0.1473,-0.1484,-0.1488,-0.1472,-0.1471,-0.1469,-0.1459,-0.1459,-0.1456,-0.1458,-0.1459,-0.1469,-0.1467,-0.1486,-0.1485,-0.1513,-0.1519,-0.1524,-0.1537,-0.1542,-0.155,-0.1472,-0.1472,-0.1472,0,0,-0.1479,-0.148,-0.1487,-0.1489,-0.1485,-0.1491,-0.1473,-0.1485,-0.1496,-0.1464,-0.1485,-0.1479,-0.1469,-0.1486,-0.15,-0.1488,-0.1549,-0.1527,-0.1531,-0.1542,-0.1546,-0.1554,-0.156,-0.1474,-0.1474,-0.1474,0,0,-0.1491,-0.1505,-0.1517,-0.1521,-0.1533,-0.1524,-0.154,-0.1531,-0.1536,-0.1549,-0.1533,-0.1546,-0.1549,-0.1542,-0.1539,-0.158,-0.1577,-0.1593,-0.1636,-0.1641,-0.1647,-0.1652,-0.1673,-0.168,-0.1598,-0.1598,-0.1598,0,-0.1506,-0.1515,-0.1518,-0.153,-0.1542,-0.1547,-0.1563,-0.1564,-0.1563,-0.1575,-0.1572,-0.1579,-0.1574,-0.1588,-0.1603,-0.1594,-0.1602,-0.1606,-0.1648,-0.1653,-0.1658,-0.1678,-0.1685,-0.16,-0.16,-0.16,-0.16,0,-0.1514,-0.1536,-0.1546,-0.1566,-0.1579,-0.1596,-0.1607,-0.1629,-0.1644,-0.1642,-0.1671,-0.1652,-0.1659,-0.1663,-0.1645,-0.1682,-0.1679,-0.165,-0.1627,-0.1668,-0.1687,-0.1693,-0.1604,-0.1603,-0.1602,-0.1602,0,0,-0.1507,-0.1545,-0.1553,-0.1574,-0.1604,-0.1612,-0.165,-0.1674,-0.1709,-0.1712,-0.1744,-0.1742,-0.1743,-0.1742,-0.1726,-0.1732,-0.1774,-0.1716,-0.1715,-0.1734,-0.1804,-0.1736,-0.1736,-0.1751,-0.1752,-0.1753,-0.1808,0,-0.1516,-0.1547,-0.1566,-0.1607,-0.1624,-0.1656,-0.1688,-0.1719,-0.1748,-0.1782,-0.1778,-0.1801,-0.177,-0.1785,-0.1787,-0.1778,-0.1792,-0.1763,-0.1766,-0.1767,-0.1697,-0.1741,-0.1757,-0.1813,-0.1814,-0.1815,-0.1816,0,-0.151,-0.1535,-0.1576,-0.1634,-0.1647,-0.1677,-0.1745,-0.1775,-0.1826,-0.1848,-0.1872,-0.1878,-0.1898,-0.1862,-0.1871,-0.1856,-0.1845,-0.1831,-0.1831,-0.1757,-0.171,-0.1761,-0.1828,-0.1827,-0.1826,-0.1825,-0.1824,0,-0.1486,-0.1541,-0.1578,-0.1596,-0.166,-0.1695,-0.1734,-0.1796,-0.1837,-0.1897,-0.1941,-0.1951,-0.1976,-0.1956,-0.1942,-0.1914,-0.1952,-0.1901,-0.183,-0.1826,-0.1851,-0.1844,-0.1913,-0.1913,-0.1913,-0.1913,-0.1913,0,-0.1467,-0.1502,-0.1575,-0.1592,-0.1652,-0.1697,-0.1768,-0.1811,-0.1883,-0.1941,-0.1975,-0.2017,-0.2003,-0.2024,-0.1983,-0.1939,-0.1986,-0.1854,-0.1836,-0.187,-0.1865,-0.1856,-0.1848,-0.1915,-0.1914,-0.1914,-0.1914,0,-0.1425,-0.1475,-0.1524,-0.1606,-0.164,-0.168,-0.1783,-0.1821,-0.1908,-0.199,-0.2016,-0.2083,-0.2107,-0.2097,-0.208,-0.1995,-0.1954,-0.1927,-0.2001,-0.1983,-0.1814,-0.1809,-0.1842,-0.184,-0.1839,-0.1837,-0.1836,0,-0.14,-0.142,-0.1525,-0.1559,-0.1599,-0.1673,-0.1717,-0.1813,-0.1856,-0.2019,-0.204,-0.2129,-0.2158,-0.2086,-0.2067,-0.2,-0.1962,-0.1932,-0.1836,-0.1829,-0.1808,-0.1805,-0.1802,-0.1833,-0.1833,-0.1833,-0.1832,0,-0.1347,-0.1399,-0.1438,-0.151,-0.1566,-0.1628,-0.1701,-0.1735,-0.1856,-0.1966,-0.2036,-0.2052,-0.2088,-0.2044,-0.2019,-0.1958,-0.1938,-0.1913,-0.1914,-0.1824,-0.1818,-0.1798,-0.1797,-0.1826,-0.1827,-0.1828,-0.1828,0,-0.1309,-0.1325,-0.1384,-0.1436,-0.1514,-0.1553,-0.1607,-0.1667,-0.1734,-0.1915,-0.1941,-0.2028,-0.2105,-0.2026,-0.1998,-0.1942,-0.1884,-0.1791,-0.1797,-0.1804,-0.1755,-0.174,-0.1723,0,0,0,0,0,-0.1257,-0.1261,-0.1301,-0.1351,-0.1426,-0.1465,-0.1579,-0.1633,-0.1776,-0.1796,-0.1868,-0.1903,-0.1896,-0.1918,-0.1841,-0.1931,-0.1863,-0.183,-0.1753,-0.1794,-0.1801,-0.1741,0,0,0,0,0,0,-0.1217,-0.1253,-0.1264,-0.1271,-0.1283,-0.1347,-0.1415,-0.1509,-0.1524,-0.1682,-0.1678,-0.1793,-0.1786,-0.1917,-0.1804,-0.1807,-0.1722,-0.1878,-0.1873,-0.1791,-0.1797,-0.1802,-0.1743,0,0,0,0,0]},{"header":{"parameterUnit":"m.s-1","parameterCategory":2,"la1":30.2991,"la2":30.254,"lo1":-89.0895,"lo2":-89.0444,"dy":0.0017,"dx":0.0017,"nx":28,"ny":28,"refTime":"2023-10-10T21:00:00:Z","depth":"4","parameterNumber":3,"parameterNumberName":"V-component_of_CURRENTS"},"data":[0,0,0,0,0,0,0,0,0,0,0,0,0,0,0,0,0,0,0,0,0,0,0,0,0,0,0,0,0,0,0,0,0,0,0,0,0,0,0,0,0,0,0,0,0,0,0,0,0,0,0,0,0,0,0,0,0,0,0.0102,0.0103,0,0.0227,0.0229,0.0231,0.0315,0.0315,0.0316,0.0316,0.047,0.0473,0.0477,0,0,0,0,0,0,0,0,0,0,0,0,0,0.0043,0.0043,0.0101,0.0103,0.0104,0.0227,0.0229,0.0231,0.0315,0.0315,0.0316,0.0316,0.0468,0.0473,0.0478,0,0,0,0,0,0,0,0,0,0,0,0,0,0.0112,0.0043,0.0101,0.0157,0.0163,0.0227,0.0229,0.0232,0.0315,0.0315,0.0316,0.0316,0.0467,0.0472,0.0478,0.0508,0,0,0.0496,0.0499,0,0,0,0,0,0,0,0,0.0108,0.0114,0.0148,0.0154,0.016,0.0252,0.0265,0.0324,0.0315,0.0262,0.0316,0.0316,0.0396,0.0408,0.0437,0.0516,0.0522,0.0497,0.05,0.0503,0.0504,0,0,0,0,0,0,0,0.0103,0.011,0.0156,0.0149,0.0157,0.0213,0.0223,0.0277,0.033,0.0267,0.0272,0.0279,0.0401,0.0431,0.0441,0.0524,0.0496,0.0502,0.0505,0.0508,0.0605,0.0604,0,0,0,0,0,0,0.0073,0.0105,0.0152,0.0159,0.013,0.0213,0.0225,0.0226,0.0329,0.0343,0.0279,0.0283,0.0421,0.0434,0.0447,0.048,0.0503,0.0508,0.0512,0.0606,0.0605,0.0604,0,0,0,0,0,0,0.0071,0.0075,0.0146,0.0132,0.0144,0.0213,0.0215,0.0228,0.0256,0.0337,0.0353,0.0292,0.0421,0.0438,0.0493,0.0487,0.0511,0.0516,0.0607,0.0605,0.0604,0.0552,0,0,0,0,0,0,0.0069,0.0074,0.0066,0.0129,0.0144,0.0181,0.0214,0.023,0.0258,0.0265,0.0354,0.0369,0.0423,0.0483,0.0498,0.0495,0.0521,0.0608,0.0606,0.0605,0.0555,0.0549,0.0544,0,0,0,0,0,0.0066,0.0059,0.0065,0.0071,0.013,0.018,0.0194,0.0247,0.0258,0.0273,0.0328,0.0366,0.0482,0.0488,0.0506,0.0504,0.0609,0.0607,0.0605,0.0557,0.055,0.0544,0,0,0,0,0,0,0.0038,0.0068,0.0077,0.008,0.0121,0.0193,0.0207,0.0238,0.0294,0.0297,0.037,0.039,0.0434,0.0469,0.0473,0.0522,0.0545,0.0546,0.0503,0.0497,0.0491,0.0482,0.0526,0,0,0,0,0,0.0022,0.002,0.0064,0.0067,0.008,0.0138,0.0163,0.0197,0.0252,0.0277,0.0337,0.039,0.0439,0.0467,0.0519,0.0553,0.0585,0.0555,0.0549,0.0545,0.0546,0.0588,0.0587,0.0597,0.0597,0.0597,0,0,0.0012,0.0027,0.0027,0.006,0.0093,0.0114,0.0156,0.0187,0.0209,0.0284,0.0331,0.0382,0.0444,0.0485,0.0505,0.0514,0.0555,0.0542,0.0538,0.0542,0.0586,0.0585,0.0585,0.0595,0.0596,0.0596,0,0,-0.0004,0.0001,-0.0004,0.0021,0.0057,0.0093,0.0094,0.0158,0.019,0.0237,0.029,0.0335,0.0411,0.0458,0.0489,0.048,0.0529,0.0485,0.0454,0.0493,0.0493,0.0494,0.0521,0.0525,0.0478,0.0477,0.0477,0,-0.0017,-0.002,0.0006,0.0011,0.0024,0.0075,0.008,0.0123,0.0198,0.022,0.0239,0.0346,0.0399,0.045,0.0446,0.0471,0.0496,0.0477,0.0488,0.0489,0.0491,0.0519,0.0523,0.0475,0.0475,0.0475,0.0475,0,-0.0031,-0.0035,-0.0035,-0.0021,-0.0001,0.0012,0.0059,0.0087,0.0121,0.0168,0.0224,0.03,0.0358,0.0376,0.0415,0.0445,0.046,0.0481,0.0507,0.0487,0.0517,0.0523,0.0471,0.0472,0.0472,0.0473,0,0,-0.0054,-0.0048,-0.005,-0.0058,-0.0022,-0.0008,0.0016,0.0058,0.0068,0.0142,0.0167,0.0253,0.0291,0.0326,0.0377,0.0414,0.0444,0.0445,0.0448,0.0476,0.0524,0.0526,0.0533,0.0469,0.047,0.047,0.0537,0,-0.0072,-0.009,-0.0073,-0.0083,-0.009,-0.0051,-0.0036,0.0006,0.005,0.009,0.0169,0.0214,0.0272,0.0291,0.0341,0.0426,0.0458,0.0424,0.0536,0.0539,0.0549,0.054,0.0473,0.0542,0.0543,0.0544,0.0545,0,-0.0088,-0.0103,-0.0126,-0.0135,-0.0134,-0.0132,-0.0117,-0.0093,-0.0026,0.0007,0.007,0.0137,0.0217,0.0253,0.0392,0.0367,0.0435,0.0498,0.0502,0.0529,0.0553,0.057,0.0555,0.0555,0.0554,0.0553,0.0552,0,-0.0128,-0.0139,-0.0166,-0.0167,-0.0163,-0.0171,-0.0167,-0.0123,-0.0116,-0.0049,-0.0036,0.0078,0.0122,0.0239,0.0382,0.0383,0.0526,0.0544,0.0609,0.0609,0.0612,0.0611,0.0623,0.0622,0.0622,0.0622,0.0622,0,-0.0153,-0.0175,-0.0194,-0.021,-0.0252,-0.0229,-0.0256,-0.0231,-0.0202,-0.0206,-0.0088,-0.0064,0.0119,0.023,0.0361,0.0508,0.0513,0.0605,0.0629,0.0585,0.058,0.0615,0.0613,0.0625,0.0624,0.0624,0.0623,0,-0.0184,-0.0192,-0.0231,-0.0257,-0.0273,-0.0305,-0.0334,-0.0353,-0.0311,-0.0313,-0.0298,-0.017,-0.0025,0.0165,0.0353,0.0464,0.0613,0.0657,0.0589,0.0609,0.0671,0.0666,0.0732,0.0733,0.0734,0.0734,0.0735,0,-0.02,-0.0224,-0.0282,-0.0327,-0.0345,-0.0392,-0.0433,-0.0416,-0.0436,-0.0381,-0.039,-0.0254,-0.0149,0.0111,0.0326,0.0582,0.0615,0.0692,0.0692,0.0666,0.0684,0.0678,0.0672,0.0736,0.0736,0.0736,0.0736,0,-0.0234,-0.0256,-0.0295,-0.0393,-0.0455,-0.0523,-0.0575,-0.0604,-0.0584,-0.0534,-0.0487,-0.0327,-0.0162,0.0075,0.0282,0.0467,0.0651,0.0698,0.0698,0.0699,0.0671,0.0687,0.068,0.0738,0.0738,0.0738,0.0737,0,-0.0263,-0.0306,-0.037,-0.0456,-0.0543,-0.0644,-0.0662,-0.0691,-0.07,-0.0631,-0.0615,-0.0411,-0.0278,0.0016,0.021,0.04,0.0445,0.05,0.0511,0.0511,0.0443,0.0375,0.037,0,0,0,0,0,-0.0287,-0.0348,-0.0435,-0.0545,-0.0637,-0.0701,-0.0754,-0.0759,-0.0735,-0.0729,-0.0676,-0.0522,-0.0223,-0.0076,0.0106,0.0231,0.0488,0.0454,0.0558,0.075,0.0747,0.0707,0,0,0,0,0,0,-0.0309,-0.0386,-0.0441,-0.0599,-0.0702,-0.0818,-0.0869,-0.0861,-0.0841,-0.078,-0.0628,-0.0494,-0.0204,-0.0355,0.0094,0.0163,0.0252,0.0617,0.0621,0.0751,0.0749,0.0747,0.0705,0,0,0,0,0]}]]